Preview of NWS' New Version of Forecast
This preview is not operational and should not be used for support decisions.
Latest weather observations around

Roanoke, Roanoke Regional Airport (KROA)

Using English Units (Switch to International System of Units)
Date/ Time (EST) Wind (mph) Vis. (mi) Weather Sky Cond. Temp (°F) Rel. Humidity Wind Chill (°F) Heat Index (°F) Pressure Precip. (in)
Air Dwpt 6 hour Altimeter (inHg) Sea level (inHg) 1 hr 3 hr 6 hr
Max Min
Jan 18 01:17 Calm 6 Fog/Mist OVC004 32 31     96%     30.09        
Jan 18 00:54 S 3 5 Fog/Mist OVC003 33 31     92% 30   30.1 30.12 0   0
Jan 18 00:07 Calm 5 Light Rain and Fog/Mist OVC003 33 32     96%     30.12   0    
Jan 17 23:54 Calm 5 Light Snow and Fog/Mist OVC004 33 32     96%     30.12 30.14 0    
Jan 17 22:54 Calm 6 Fog/Mist OVC004 33 31     92%     30.13 30.15 0    
Jan 17 22:08 Calm 5 Light Snow and Fog/Mist OVC004 33 32     96%     30.14   0    
Jan 17 21:54 Calm 5 Light Snow and Fog/Mist OVC005 33 31     92%     30.14 30.16 0 0  
Jan 17 20:54 Calm 6 Fog/Mist OVC007 32 31     96%     30.16 30.18 0    
Jan 17 20:34 SE 3 3 Light Snow and Fog/Mist FEW004 BKN009 OVC023 32 32     100% 29   30.16   0    
Jan 17 19:54 SE 3 6 Fog/Mist SCT004 SCT016 OVC021 32 31     96% 29   30.17 30.2 0    
Jan 17 19:38 SE 3 5 Fog/Mist FEW005 OVC019 32 31     96% 29   30.17   0    
Jan 17 19:21 SSE 5 4 Light Snow and Fog/Mist BKN016 OVC023 32 31     96% 27   30.17   0    
Jan 17 18:54 ESE 3 2 Light Snow and Fog/Mist FEW005 OVC014 32 31     96% 29   30.17 30.2 0   0
Jan 17 17:54 SE 3 2 Light Snow and Fog/Mist FEW005 OVC012 32 31     96% 29   30.18 30.2 0    
Jan 17 17:45 ESE 5 2 Light Snow and Fog/Mist SCT005 OVC012 32 31     96% 27   30.17   0    
Jan 17 17:16 ESE 5 2 Light Snow and Fog/Mist BKN007 BKN013 OVC021 33 31     92% 29   30.17   0    
Jan 17 16:54 SE 6 2 Light Snow and Fog/Mist FEW005 BKN021 OVC030 33 31     92% 28   30.18 30.21 0    
Jan 17 16:50 SE 6 2 Light Snow and Fog/Mist SCT005 SCT023 OVC031 32 30     93% 26   30.18   0    
Jan 17 16:22 ESE 5 1 Light Snow and Fog/Mist OVC004 33 31     92% 29   30.19   0    
Jan 17 15:54 ESE 7 1 Light Snow and Fog/Mist BKN005 OVC024 32 31     96% 26   30.19 30.22 0 0  
Jan 17 15:20 SE 6 1 Light Snow and Fog/Mist FEW005 OVC016 33 31     92% 28   30.2   0    
Jan 17 14:54 SE 8 1 Light Snow and Fog/Mist OVC018 33 30     88% 26   30.21 30.24 0    
Jan 17 14:40 S 6 1.75 Light Snow OVC018 34 29     82% 29   30.22   0    
Jan 17 13:54 SSE 6 10 Cloudy OVC018 35 27     72% 30   30.23 30.25      
Jan 17 12:54 SE 7 10 Cloudy OVC016 35 28     75% 29   30.24 30.27      
Jan 17 11:54 SSE 8 10 Cloudy OVC015 34 29     82% 27   30.3 30.33      
Jan 17 10:54 SE 7 10 Cloudy OVC011 34 30     85% 28   30.33 30.36      
Jan 17 09:54 S 3 10 Cloudy OVC012 33 29     85% 30   30.32 30.34      
Jan 17 09:14 ESE 3 10 Cloudy OVC014 33 28     82% 30   30.3        
Jan 17 08:54 Calm 10 Cloudy BKN017 OVC025 32 28     85%     30.3 30.32      
Jan 17 07:54 Calm 10 Cloudy OVC025 30 26     85%     30.31 30.34      
Jan 17 06:54 Calm 10 Cloudy OVC024 29 26     89%     30.31 30.34      
Jan 17 06:40 Calm 10 Mostly Cloudy BKN024 28 26     92%     30.31        
Jan 17 05:54 Calm 10 Clear CLR 29 25     85%     30.31 30.34      
Jan 17 04:54 Calm 10 Clear CLR 30 25     81%     30.3 30.33      
Jan 17 03:54 Calm 10 Clear CLR 31 26     82%     30.29 30.32      
Jan 17 02:54 NNE 3 10 Clear CLR 32 26     78% 29   30.3 30.32      
Jan 17 01:54 Calm 10 Mostly Cloudy FEW028 BKN210 33 26     75%     30.3 30.32      
Jan 17 00:54 N 5 10 Mostly Cloudy BKN210 34 26     72% 30   30.29 30.3      
Jan 16 23:54 NNW 5 10 Mostly Cloudy BKN028 35 26     69% 31   30.3 30.32      
Jan 16 22:54 N 5 10 Cloudy OVC028 35 26     69% 31   30.29 30.31      
Jan 16 21:54 NNW 6 10 Cloudy OVC027 36 26     67% 31   30.28 30.3      
Jan 16 20:54 NW 8 10 Cloudy OVC026 36 27     70% 30   30.27 30.29      
Jan 16 19:54 WNW 9 10 Cloudy OVC027 37 27     67% 30   30.27 30.3      
Jan 16 18:54 WNW 5 10 Mostly Cloudy BKN027 37 27     67% 33   30.25 30.28      
Jan 16 17:54 WNW 9 10 Mostly Cloudy BKN029 37 27     67% 30   30.22 30.25      
Jan 16 16:54   10 Mostly Cloudy BKN032 39 27     62%     30.21 30.23      
Jan 16 15:54   10 Mostly Cloudy BKN032 40 27     60%     30.2 30.22      
Jan 16 14:54   10 Mostly Cloudy BKN032 43 28     55%     30.18 30.2      
Jan 16 13:54   10 Partly Cloudy SCT031 41 28     60%     30.18 30.2      
Jan 16 12:54   10 Mostly Cloudy BKN033 43 29     57%     30.18 30.2      
Jan 16 12:31   10 Mostly Cloudy BKN031 44 30     58%     30.18        
Jan 16 11:54 WNW 11 10 Cloudy OVC029 42 29     59% 36   30.19 30.21      
Jan 16 10:54 WNW 14 10 Mostly Cloudy BKN029 40 29     65% 32   30.21 30.23      
Jan 16 10:17 W 7 10 Mostly Cloudy BKN029 37 27     67% 32   30.21        
Jan 16 09:54 W 5 10 Partly Cloudy SCT027 37 27     67% 33   30.2 30.22      
Jan 16 08:54 W 9 10 Clear CLR 33 26     75% 25   30.18 30.2      
Jan 16 07:54 WNW 7 10 Clear CLR 31 25     78% 24   30.17 30.2      
Jan 16 06:54 WNW 8 10 Clear CLR 31 25     78% 23   30.16 30.19      
Jan 16 05:54 W 10 10 Clear CLR 32 25     75% 24   30.14 30.17      
Jan 16 04:54 W 13 10 Clear CLR 32 25     75% 22   30.14 30.16      
Jan 16 03:54 NNW 7 10 Clear CLR 28 24     85% 21   30.15 30.17      
Jan 16 02:54 WNW 9 10 Clear CLR 32 25     75% 24   30.17 30.19      
Jan 16 01:54 WNW 6 10 Clear CLR 30 24     78% 24   30.16 30.18      
Jan 16 00:54 W 8 10 Clear CLR 31 24     75% 23   30.17 30.19      
Jan 15 23:54 W 3 10 Clear CLR 32 24     72% 29   30.18 30.2      
Jan 15 22:54 WNW 5 10 Clear CLR 30 24     78% 25   30.19 30.22      
Jan 15 21:54 WNW 5 10 Clear CLR 32 24     72% 27   30.19 30.21      
Jan 15 20:54 WNW 7 10 Mostly Clear FEW027 32 24     72% 26   30.19 30.22      
Jan 15 20:16 WNW 7 10 Mostly Clear FEW028 32 24     72% 26   30.2        
Jan 15 19:54 W 5 10 Mostly Cloudy BKN029 32 24     72% 27   30.2 30.23      
Jan 15 18:54 NW 10 10 Mostly Clear FEW029 34 24     67% 26   30.21 30.23      
Jan 15 17:54 NW 9 10 Mostly Clear FEW030 33 25     72% 25   30.2 30.22      
Jan 15 16:54 NW 10 10 Mostly Clear FEW030 36 25     64% 29   30.19 30.22      
Jan 15 15:54 WNW 11 10 Mostly Clear FEW028 39 26     59% 32   30.19 30.21      
Jan 15 14:54 NW 13 10 Mostly Clear FEW028 41 26     55% 34   30.18 30.2      
Jan 15 13:54 W 11 10 Mostly Clear FEW027 40 28     62% 33   30.18 30.2      
Jan 15 12:54 W 8 10 Partly Cloudy SCT027 41 28     60% 36   30.2 30.22      
Jan 15 11:54 W 11 10 Partly Cloudy SCT027 38 26     62% 30   30.22 30.24      
Jan 15 10:54 WNW 14 10 Clear   37 26     64% 28   30.25 30.27      
Jan 15 10:28 WNW 11 10 Mostly Clear FEW026 36 25     64% 28   30.26        
Jan 15 09:54 WNW 13 10 Mostly Cloudy BKN026 36 26     67% 27   30.25 30.27      
Jan 15 09:34 WNW 13 10 Partly Cloudy FEW024 SCT030 35 26     69% 26   30.24        
Jan 15 08:54 WNW 7 10 Cloudy OVC023 34 26     72% 28   30.23 30.25      
Jan 15 07:54 W 10 10 Cloudy OVC023 34 26     72% 26   30.21 30.23      
Jan 15 06:54 WNW 8 10 Cloudy OVC022 34 26     72% 27   30.21 30.23      
Jan 15 05:54 NW 7 10 Cloudy OVC023 34 26     72% 28   30.19 30.21      
Jan 15 04:54 NW 7 10 Mostly Cloudy BKN024 33 27     78% 27   30.18 30.2      
Jan 15 03:54 Calm 10 Cloudy BKN026 OVC065 33 29     85%     30.19 30.21      
Jan 15 02:54 Calm 10 Cloudy BKN026 OVC065 35 30     82%     30.19 30.21      
Jan 15 02:19 NW 6 10 Cloudy BKN026 OVC065 34 30     85% 29   30.19        
Jan 15 02:05 NW 5 10 Cloudy SCT025 OVC065 35 30     82% 31   30.19        
Jan 15 01:54 N 3 10 Cloudy BKN025 OVC065 35 30     82% 32   30.19 30.21      
Jan 15 00:54 NW 3 10 Cloudy BKN024 OVC070 35 31     85% 32   30.18 30.21      
Jan 15 00:49 Calm 10 Cloudy BKN024 BKN029 OVC070 34 30     86%     30.18        
May 15 14:54 S 11 10 Mostly Cloudy FEW042 BKN100 BKN160 88 68     52%   92 29.97 29.93      
May 14 23:54 ENE 3 10 Cloudy OVC070 75 63     66%   75 30.04 30      
May 14 18:54 S 11 10 Partly Cloudy FEW070 SCT100 SCT250 88 63     43%   89 29.97 29.93      
May 14 12:54 S 5 10 Mostly Clear FEW048 88 63     43%   89 30.06 30.02      
May 14 11:54 5 10 Mostly Clear FEW048 86 62     45%   87 30.07 30.03      
May 13 17:54 WSW 9 10 Clear CLR 91 54     29%   89 29.99 29.94      
May 12 17:54 WSW 6 10 Mostly Cloudy FEW080 BKN160 91 56     31%   89 30.03 29.98      
May 12 07:54 W 3 10 Partly Cloudy SCT250 71 61     70%   71 30.15 30.11      
May 12 06:20 Calm 10 Partly Cloudy SCT250 67 58     73%     30.12        
May 11 14:54 6 10 Partly Cloudy SCT060 86 55     35%   84 30.04 30      
Jun 12 02:54 WNW 5 10 Clear CLR 71 59     66%   71 30.16 30.12      
Jun 10 01:54 Calm 10 Clear CLR 59 54     83%     30.07 30.04      
Jun 09 11:54 NW 15 10 Partly Cloudy SCT043 SCT050 74 51     45%   73 29.99 29.96      
Jun 09 02:54 W 8 10 Mostly Cloudy BKN090 59 56     90%     29.9 29.88      
Jun 09 00:54 W 6 10 Cloudy OVC090 59 57     93%     29.91 29.89      
Jun 08 09:54 ENE 7 10 Mostly Cloudy BKN028 BKN035 61 52     72%     30.01 29.99      
Jun 07 22:54 NE 7 10 Mostly Cloudy FEW027 BKN041 BKN048 62 53     72%     30.04 30.02      
Jun 07 11:54 NE 8 10 Partly Cloudy SCT044 71 50     47%   70 29.96 29.93      
Jun 06 07:54 6 10 Partly Cloudy FEW040 SCT280 68 60     76%     29.83 29.8      
Jun 05 15:54 WSW 6 10 Light Rain FEW013 OVC060 68 65     90%     29.81 29.78 0